Location: Gull Harbor
(47.1000°N, 122.9000°W)
Time: 08:40:47
(UTC-07:00)

X-37B - Visible Passes

Search period start: 25 May 2020 00:00
Search period end: 04 June 2020 00:00
Orbit: 389 x 390 km, 44.9° (Epoch: 18 May)

Date Brightness Start Highest point End Pass type
(mag) Time Alt. Az. Time Alt. Az. Time Alt. Az.
29 May ? 04:22:01 10° SSE 04:22:54 11° SE 04:23:48 10° SE visible
31 May ? 04:01:56 13° S 04:03:31 18° SSE 04:05:45 10° ESE visible
01 Jun ? 03:06:22 11° SE 03:06:22 11° SE 03:06:56 10° SE visible
01 Jun ? 04:38:59 10° SW 04:41:57 36° SSE 04:44:56 10° E visible
02 Jun ? 03:43:03 21° SSW 03:44:11 26° SSE 03:46:55 10° E visible
03 Jun ? 02:47:24 16° SE 02:47:24 16° SE 02:48:43 10° ESE visible
03 Jun ? 04:19:42 11° WSW 04:22:42 48° SSE 04:25:48 10° E visible
